Weather History for CYUX - November, 2012

Change the Weather History Date:

Monday, November 19, 2012

  Actual Average Record
Temperature  
Mean Temperature -12 °F -  
Max Temperature -5 °F 3 °F 24 °F (2002)
Min Temperature -18 °F -6 °F -31 °F (2004)
Degree Days  
Heating Degree Days 76    
Moisture  
Dew Point -18 °F    
Average Humidity 81    
Maximum Humidity 92    
Minimum Humidity 76    
Precipitation  
Precipitation 0.00 in - - ()
Sea Level Pressure  
Sea Level Pressure 30.25 in    
Wind  
Wind Speed 11 mph ()    
Max Wind Speed 16 mph    
Max Gust Speed -    
Visibility 9.6 miles    
Events Snow    
Averages and records for this station are not official NWS values.
T = Trace of Precipitation, MM = Missing Value Source: Averaged Metar Reports

Daily Weather History Graph

Daily Weather History Graph

Search for Another Location

Airport or City:

Trip Planner

Search our weather history database for the weather conditions in past years. The results will help you decide how hot, cold, wet, or windy it might be!

Date:

Astronomy

Nov. 19, 2012 Rise Set
Actual Time 10:15 AM EST 2:04 PM EST
Civil Twilight 8:41 AM EST 3:38 PM EST
Nautical Twilight 7:22 AM EST 4:57 PM EST
Astronomical Twilight 6:12 AM EST 6:06 PM EST
Moon 1:39 PM EST (11/19) 10:20 PM EST (11/19)
Length of Visible Light 6h 57m
Length of Day
3h 49m
Waxing Crescent, 40% of the Moon is Illuminated
Nov 19
Waxing Crescent
Nov 20
First Quarter
Nov 28
Full
Dec 6
Last Quarter
Dec 13
New

Hourly Weather History & Observations

Time (EST) Temp. Windchill Dew Point Humidity Pressure Visibility Wind Dir Wind Speed Gust Speed Precip Events Conditions
12:00 AM -16.6 °F -40.6 °F -22.0 °F 76% 30.20 in 9.0 mi NW 15.0 mph - N/A   Clear
12:29 AM -16.6 °F -39.8 °F -20.2 °F 84% 30.21 in 9.0 mi NW 13.8 mph - N/A   Mostly Cloudy
12:34 AM -16.6 °F -37.9 °F -20.2 °F 84% 30.21 in 9.0 mi NW 11.5 mph - N/A   Scattered Clouds
12:42 AM -16.6 °F -38.9 °F -22.0 °F 76% 30.22 in 9.0 mi WNW 12.7 mph - N/A   Mostly Cloudy
1:00 AM -16.6 °F -36.8 °F -20.2 °F 84% 30.22 in 9.0 mi WNW 10.4 mph - N/A   Mostly Cloudy
2:00 AM -14.8 °F -36.6 °F -20.2 °F 77% 30.24 in 9.0 mi NW 12.7 mph - N/A   Mostly Cloudy
2:03 AM -14.8 °F -35.6 °F -20.2 °F 77% 30.24 in 9.0 mi NW 11.5 mph - N/A   Scattered Clouds
3:00 AM -16.6 °F -39.8 °F -22.0 °F 76% 30.24 in 9.0 mi NW 13.8 mph - N/A   Partly Cloudy
3:07 AM -16.6 °F -38.9 °F -20.2 °F 84% 30.25 in 9.0 mi NW 12.7 mph - N/A   Mostly Cloudy
3:21 AM -14.8 °F -36.6 °F -20.2 °F 77% 30.24 in 9.0 mi NW 12.7 mph - N/A Snow Light Snow
4:00 AM -13.0 °F -31.3 °F -16.6 °F 84% 30.25 in 9.0 mi WNW 9.2 mph - N/A Snow Light Snow
4:06 AM -13.0 °F -33.4 °F -18.4 °F 77% 30.25 in 9.0 mi WNW 11.5 mph - N/A   Overcast
4:27 AM -14.8 °F -36.6 °F -20.2 °F 77% 30.25 in 9.0 mi WNW 12.7 mph - N/A   Scattered Clouds
5:00 AM -16.6 °F -37.9 °F -22.0 °F 76% 30.25 in 9.0 mi West 11.5 mph - N/A   Clear
6:00 AM -18.4 °F -42.1 °F -22.0 °F 84% 30.25 in 9.0 mi West 13.8 mph - N/A   Clear
7:34 AM -14.8 °F -33.5 °F -18.4 °F 84% 30.26 in 15.0 mi West 9.2 mph - N/A Snow Light Snow
8:00 AM -13.0 °F -36.0 °F -16.6 °F 84% 30.26 in 15.0 mi WNW 15.0 mph - N/A Snow Light Snow
9:00 AM -9.4 °F -27.9 °F -13.0 °F 84% 30.27 in 8.0 mi West 10.4 mph - N/A Snow Light Snow
10:00 AM -5.8 °F -26.0 °F -9.4 °F 84% 30.27 in 5.0 mi West 13.8 mph - N/A Snow Light Snow
10:36 AM -9.4 °F -29.8 °F -13.0 °F 84% 30.26 in 15.0 mi West 12.7 mph - N/A   Scattered Clouds
12:00 PM -9.4 °F -31.4 °F -13.0 °F 84% 30.27 in 12.0 mi West 15.0 mph - N/A   Mostly Cloudy
12:35 PM -5.8 °F -27.5 °F -9.4 °F 84% 30.26 in 9.0 mi West 16.1 mph - N/A Snow Light Snow
1:00 PM -5.8 °F -26.0 °F -7.6 °F 92% 30.26 in 9.0 mi West 13.8 mph - N/A Snow Light Snow
2:00 PM -7.6 °F -29.1 °F -11.2 °F 84% 30.27 in 9.0 mi West 15.0 mph - N/A Snow Light Snow
2:39 PM -9.4 °F -28.9 °F -14.8 °F 77% 30.26 in 10.0 mi West 11.5 mph - N/A   Scattered Clouds
3:00 PM -11.2 °F -29.0 °F -14.8 °F 84% 30.27 in 10.0 mi West 9.2 mph - N/A   Partly Cloudy
4:00 PM -13.0 °F -34.3 °F -16.6 °F 84% 30.27 in 10.0 mi WNW 12.7 mph - N/A   Partly Cloudy
5:00 PM -11.2 °F -32.9 °F -16.6 °F 77% 30.26 in 10.0 mi NW 13.8 mph - N/A   Partly Cloudy
6:00 PM -13.0 °F -30.0 °F -18.4 °F 77% 30.27 in 10.0 mi NW 8.1 mph - N/A   Partly Cloudy
7:00 PM -16.6 °F -37.9 °F -20.2 °F 84% 30.25 in 10.0 mi NW 11.5 mph - N/A   Partly Cloudy
8:00 PM -18.4 °F -36.6 °F -23.8 °F 76% 30.25 in 9.0 mi West 8.1 mph - N/A   Clear
9:00 PM -16.6 °F -38.9 °F -22.0 °F 76% 30.24 in 9.0 mi NW 12.7 mph - N/A   Clear
10:00 PM -16.6 °F -38.9 °F -20.2 °F 84% 30.24 in 9.0 mi WNW 12.7 mph - N/A   Clear
11:00 PM -16.6 °F -38.9 °F -22.0 °F 76% 30.23 in 9.0 mi NW 12.7 mph - N/A   Clear